{"data":{"norad_id":68051,"epoch":"2026-09-20T04:42:39.159648Z","epoch_age_seconds":85872,"freshness":"FRESH","line1":"1 68051U 26041M   26263.19628657  .00012889  00000+0  39182-3 0  9999","line2":"2 68051  53.1579 223.1741 0001587  82.7669 277.3514 15.34409497 31213","mean_motion":15.34409497,"eccentricity":0.0001587,"inclination_deg":53.1579,"raan_deg":223.1741,"arg_perigee_deg":82.7669,"mean_anomaly_deg":277.3514,"bstar":0.00039182,"rev_number":3121,"period_min":93.847177224555,"perigee_km":461.58937640079,"apogee_km":463.7606501338,"semimajor_km":6840.8120132673,"source":"CELESTRAK","updated_at":"2026-09-20T09:00:43.749124Z"}}